Location: Berg
(48.4333°N, 13.9167°E)
Time: 04:44:15
(UTC+00:00)

Meteor 2-9 Rocket - Pass Details

Date: 18 September 2020
Orbit: 791 x 896 km, 81.3° (Epoch: 29 October)

Event Time Altitude Azimuth Distance (km) Brightness Sun altitude
Rises 17:50:47 0° 183° (S) 3,498 7.3 -7.6°
Reaches altitude 10° 17:53:14 10° 182° (S) 2,561 6.6 -8.0°
Maximum altitude 17:59:04 74° 98° (E) 928 4.3 -8.9°
Drops below altitude 10° 18:04:51 10° 15° (NNE) 2,543 6.7 -9.8°
Sets 18:07:17 0° 14° (NNE) 3,473 7.4 -10.2°
